DLH274 EDDN-EDDH

Flight info

Callsign DLH274
Flight time N/A
Altitude 30000
Route ERETO1G/28 ERETO DCT LONLI M726 LASTO M852 LARET/N0443F340 M852 HLZ Z990 DIRBO/N0397F230 T902 RARUP RARUP3S
Aircraft A320/M-SDE3FGHIRWY/LB1

Departure

Time N/A
Airport Nuremberg Airport (EDDN)

Arrival

Time 2026-04-24 15:13
Airport Hamburg Helmut Schmidt Airport (EDDH)
Time Latitude Longitude Altitude Speed Heading
2026-04-24 14:17 50.15628 11.22708 20862 ft 381 kts 358°
2026-04-24 14:18 50.18288 11.22731 21491 ft 383 kts 358°
2026-04-24 14:18 50.20966 11.22745 22120 ft 386 kts 358°
2026-04-24 14:18 50.23661 11.22753 22731 ft 389 kts 358°
2026-04-24 14:18 50.26375 11.22758 23331 ft 391 kts 358°
2026-04-24 14:19 50.28183 11.22762 23723 ft 393 kts 358°
2026-04-24 14:19 50.31864 11.22778 24380 ft 397 kts 358°
2026-04-24 14:19 50.34602 11.22791 24852 ft 400 kts 358°
2026-04-24 14:19 50.37428 11.22606 25313 ft 402 kts 352°
2026-04-24 14:20 50.40185 11.22196 25770 ft 405 kts 352°
2026-04-24 14:20 50.42999 11.21771 26228 ft 408 kts 352°
2026-04-24 14:20 50.45837 11.21337 26664 ft 411 kts 352°
2026-04-24 14:20 50.48696 11.20900 27107 ft 414 kts 352°
2026-04-24 14:21 50.51573 11.20461 27557 ft 417 kts 352°
2026-04-24 14:21 50.54474 11.20018 27984 ft 421 kts 352°
2026-04-24 14:21 50.57401 11.19575 28373 ft 424 kts 352°
2026-04-24 14:21 50.60352 11.19132 28785 ft 428 kts 352°
2026-04-24 14:22 50.63325 11.18685 29217 ft 431 kts 352°
2026-04-24 14:22 50.66318 11.18234 29615 ft 434 kts 352°
2026-04-24 14:22 50.72361 11.17315 30150 ft 434 kts 352°
2026-04-24 14:23 50.75324 11.16860 30161 ft 423 kts 352°
2026-04-24 14:23 50.81141 11.15960 30172 ft 418 kts 352°
2026-04-24 14:24 50.86924 11.15076 30163 ft 417 kts 352°
2026-04-24 14:24 50.92701 11.14195 30165 ft 417 kts 352°
2026-04-24 14:25 50.97501 11.13459 30169 ft 417 kts 352°
2026-04-24 14:25 51.04212 11.12416 30165 ft 417 kts 352°
2026-04-24 14:26 51.09978 11.11517 30174 ft 416 kts 351°
2026-04-24 14:26 51.15509 11.09231 30166 ft 409 kts 334°
2026-04-24 14:27 51.20707 11.05510 30159 ft 409 kts 333°
2026-04-24 14:27 51.25899 11.01798 30155 ft 409 kts 333°
2026-04-24 14:28 51.31093 10.98088 30150 ft 409 kts 333°
2026-04-24 14:28 51.36315 10.94413 30150 ft 411 kts 337°
2026-04-24 14:29 51.41970 10.92679 30148 ft 418 kts 352°
2026-04-24 14:29 51.47770 10.92002 30147 ft 418 kts 352°
2026-04-24 14:30 51.52591 10.91429 30144 ft 418 kts 352°
2026-04-24 14:30 51.59341 10.90624 30161 ft 418 kts 352°
2026-04-24 14:31 51.64163 10.90047 30158 ft 417 kts 352°
2026-04-24 14:31 51.69953 10.89308 30158 ft 417 kts 351°
2026-04-24 14:32 51.75717 10.88335 30155 ft 416 kts 349°
2026-04-24 14:32 51.81468 10.87278 30174 ft 416 kts 349°
2026-04-24 14:33 51.87230 10.86309 30159 ft 416 kts 351°
2026-04-24 14:33 51.93007 10.85523 30157 ft 416 kts 351°
2026-04-24 14:34 51.98787 10.84758 30163 ft 416 kts 351°
2026-04-24 14:34 52.04562 10.83968 30176 ft 416 kts 351°
2026-04-24 14:35 52.10327 10.83146 29435 ft 416 kts 351°
2026-04-24 14:35 52.13216 10.82728 28661 ft 416 kts 351°
2026-04-24 14:35 52.16089 10.82322 28059 ft 412 kts 351°
2026-04-24 14:35 52.18930 10.81927 27477 ft 408 kts 351°
2026-04-24 14:36 52.21706 10.81545 26910 ft 404 kts 351°
2026-04-24 14:36 52.24491 10.81166 26345 ft 399 kts 351°
2026-04-24 14:36 52.27247 10.80791 25802 ft 395 kts 351°
2026-04-24 14:36 52.29974 10.80419 25278 ft 391 kts 351°
2026-04-24 14:37 52.32668 10.80047 24751 ft 387 kts 351°
2026-04-24 14:37 52.35340 10.79679 24220 ft 383 kts 353°
2026-04-24 14:37 52.38006 10.79697 23702 ft 383 kts
2026-04-24 14:37 52.40658 10.79983 23101 ft 380 kts 360°
2026-04-24 14:38 52.43282 10.80255 22516 ft 377 kts 360°
2026-04-24 14:38 52.45895 10.80527 21972 ft 374 kts
2026-04-24 14:38 52.48479 10.80799 21442 ft 371 kts
2026-04-24 14:38 52.51049 10.81068 20932 ft 368 kts
2026-04-24 14:39 52.53595 10.81333 20463 ft 365 kts
2026-04-24 14:39 52.56126 10.81594 19985 ft 363 kts
2026-04-24 14:39 52.58605 10.81845 19516 ft 360 kts
2026-04-24 14:39 52.61099 10.82097 19051 ft 358 kts
2026-04-24 14:40 52.63573 10.82347 18605 ft 355 kts
2026-04-24 14:40 52.66034 10.82598 18109 ft 353 kts
2026-04-24 14:40 52.68476 10.82852 17636 ft 350 kts
2026-04-24 14:40 52.70894 10.83107 17178 ft 347 kts
2026-04-24 14:41 52.73290 10.83364 16737 ft 344 kts
2026-04-24 14:41 52.75669 10.83622 16292 ft 340 kts
2026-04-24 14:41 52.78021 10.83875 15878 ft 337 kts
2026-04-24 14:41 52.80349 10.84123 15455 ft 334 kts
2026-04-24 14:42 52.82658 10.84320 15027 ft 330 kts 358°
2026-04-24 14:42 52.84938 10.84080 14602 ft 326 kts 351°
2026-04-24 14:42 52.87181 10.83612 14189 ft 323 kts 351°
2026-04-24 14:42 52.89406 10.83160 13769 ft 321 kts 352°
2026-04-24 14:43 52.91611 10.82714 13331 ft 318 kts 352°
2026-04-24 14:43 52.93801 10.82271 12867 ft 316 kts 352°
2026-04-24 14:43 52.95974 10.81829 12413 ft 313 kts 352°
2026-04-24 14:43 52.98127 10.81386 11963 ft 311 kts 352°
2026-04-24 14:44 53.00262 10.80948 11523 ft 308 kts 352°
2026-04-24 14:44 53.02383 10.80515 11197 ft 306 kts 352°
2026-04-24 14:44 53.04498 10.80082 11144 ft 306 kts 352°
2026-04-24 14:44 53.06617 10.79646 11148 ft 307 kts 352°
2026-04-24 14:45 53.08736 10.79208 11152 ft 307 kts 352°
2026-04-24 14:45 53.10857 10.78771 11148 ft 307 kts 352°
2026-04-24 14:45 53.12976 10.78341 11097 ft 305 kts 352°
2026-04-24 14:45 53.15072 10.77915 10664 ft 302 kts 352°
2026-04-24 14:46 53.17157 10.77488 10204 ft 301 kts 352°
2026-04-24 14:46 53.19177 10.77069 9986 ft 290 kts 352°
2026-04-24 14:46 53.21134 10.76664 9860 ft 277 kts 352°
2026-04-24 14:46 53.23009 10.76279 9682 ft 267 kts 352°
2026-04-24 14:47 53.24835 10.75903 9338 ft 263 kts 352°
2026-04-24 14:47 53.26644 10.75528 8973 ft 260 kts 352°
2026-04-24 14:47 53.28429 10.75158 8604 ft 257 kts 352°
2026-04-24 14:47 53.30198 10.74793 8200 ft 255 kts 352°
2026-04-24 14:48 53.31956 10.74430 7780 ft 254 kts 352°
2026-04-24 14:48 53.33707 10.74068 7383 ft 253 kts 352°
2026-04-24 14:48 53.35446 10.73707 7165 ft 251 kts 352°
2026-04-24 14:48 53.37182 10.73346 7153 ft 252 kts 352°
2026-04-24 14:49 53.38927 10.72983 7157 ft 253 kts 352°
2026-04-24 14:49 53.40674 10.72622 7157 ft 253 kts 352°
2026-04-24 14:49 53.42422 10.72259 7158 ft 253 kts 352°
2026-04-24 14:49 53.44170 10.71892 7158 ft 253 kts 352°
2026-04-24 14:50 53.45920 10.71528 7156 ft 253 kts 352°
2026-04-24 14:50 53.47667 10.71166 7150 ft 253 kts 352°
2026-04-24 14:50 53.49411 10.70804 7150 ft 252 kts 352°
2026-04-24 14:50 53.51153 10.70439 7124 ft 252 kts 352°
2026-04-24 14:51 53.52877 10.70075 6769 ft 249 kts 352°
2026-04-24 14:51 53.54592 10.69713 6355 ft 248 kts 352°
2026-04-24 14:51 53.56303 10.69352 5897 ft 248 kts 352°
2026-04-24 14:51 53.58013 10.68978 5424 ft 248 kts 349°
2026-04-24 14:52 53.59623 10.68045 5098 ft 242 kts 331°
2026-04-24 14:52 53.60929 10.66399 4973 ft 230 kts 315°
2026-04-24 14:52 53.61857 10.64290 4835 ft 221 kts 300°
2026-04-24 14:52 53.62383 10.61884 4569 ft 220 kts 285°
2026-04-24 14:53 53.62484 10.59304 4237 ft 223 kts 269°
2026-04-24 14:53 53.62147 10.56750 4144 ft 226 kts 256°
2026-04-24 14:53 53.61677 10.54247 4149 ft 228 kts 257°
2026-04-24 14:53 53.61205 10.51702 4150 ft 229 kts 256°
2026-04-24 14:54 53.60702 10.49152 4151 ft 230 kts 252°
2026-04-24 14:54 53.59988 10.46725 4153 ft 232 kts 247°
2026-04-24 14:54 53.59263 10.44310 4153 ft 231 kts 247°
2026-04-24 14:54 53.58538 10.41891 4156 ft 231 kts 248°
2026-04-24 14:55 53.58048 10.40260 4166 ft 231 kts 249°
2026-04-24 14:55 53.57080 10.37061 4166 ft 232 kts 248°
2026-04-24 14:55 53.56353 10.34629 4173 ft 232 kts 248°
2026-04-24 14:55 53.55805 10.32128 4172 ft 224 kts 268°
2026-04-24 14:56 53.55925 10.29574 4186 ft 219 kts 292°
2026-04-24 14:56 53.56692 10.27410 4188 ft 215 kts 316°
2026-04-24 14:56 53.57925 10.26051 4188 ft 212 kts 340°
2026-04-24 14:56 53.59383 10.25729 4187 ft 215 kts
2026-04-24 14:57 53.60859 10.26253 4188 ft 217 kts 10°
2026-04-24 14:57 53.62331 10.26837 4187 ft 217 kts 10°
2026-04-24 14:57 53.63779 10.27408 4185 ft 217 kts 11°
2026-04-24 14:57 53.65222 10.28219 4186 ft 220 kts 19°
2026-04-24 14:58 53.66589 10.29409 4186 ft 222 kts 28°
2026-04-24 14:58 53.67846 10.30942 4184 ft 225 kts 36°
2026-04-24 14:58 53.68966 10.32808 4159 ft 228 kts 44°
2026-04-24 14:58 53.69982 10.34881 4152 ft 229 kts 45°
2026-04-24 14:59 53.71001 10.36950 4150 ft 229 kts 45°
2026-04-24 14:59 53.72021 10.39021 4148 ft 229 kts 46°
2026-04-24 14:59 53.73041 10.41087 4147 ft 230 kts 44°
2026-04-24 14:59 53.74064 10.43158 4145 ft 229 kts 46°
2026-04-24 15:00 53.75084 10.45229 4142 ft 230 kts 45°
2026-04-24 15:00 53.76104 10.47306 4152 ft 230 kts 45°
2026-04-24 15:00 53.77126 10.49384 4144 ft 229 kts 44°
2026-04-24 15:00 53.78147 10.51458 4140 ft 230 kts 45°
2026-04-24 15:01 53.79169 10.53536 4147 ft 229 kts 46°
2026-04-24 15:01 53.80181 10.55605 4143 ft 228 kts 46°
2026-04-24 15:01 53.81195 10.57677 4141 ft 229 kts 45°
2026-04-24 15:01 53.82361 10.59432 4138 ft 222 kts 26°
2026-04-24 15:02 53.83746 10.60293 4135 ft 204 kts
2026-04-24 15:02 53.85110 10.60308 4133 ft 190 kts 348°
2026-04-24 15:02 53.86322 10.59638 4132 ft 178 kts 332°
2026-04-24 15:02 53.87295 10.58480 4154 ft 167 kts 321°
2026-04-24 15:03 53.87879 10.57652 4143 ft 164 kts 321°
2026-04-24 15:03 53.88772 10.55565 4139 ft 168 kts 295°
2026-04-24 15:03 53.89008 10.53607 4138 ft 173 kts 275°
2026-04-24 15:03 53.88802 10.51589 4133 ft 177 kts 255°
2026-04-24 15:04 53.88147 10.49796 4136 ft 182 kts 234°
2026-04-24 15:04 53.87273 10.48230 4140 ft 183 kts 233°
2026-04-24 15:04 53.86427 10.46622 4143 ft 182 kts 236°
2026-04-24 15:04 53.85610 10.44980 4145 ft 182 kts 236°
2026-04-24 15:05 53.84803 10.43328 4142 ft 181 kts 237°
2026-04-24 15:05 53.84003 10.41681 4145 ft 182 kts 237°
2026-04-24 15:05 53.83204 10.40036 4076 ft 178 kts 236°
2026-04-24 15:05 53.82419 10.38421 3654 ft 178 kts 236°
2026-04-24 15:06 53.81637 10.36811 3276 ft 176 kts 235°
2026-04-24 15:06 53.80872 10.35239 2976 ft 173 kts 236°
2026-04-24 15:06 53.80101 10.33651 2970 ft 176 kts 236°
2026-04-24 15:06 53.79324 10.32054 2965 ft 176 kts 238°
2026-04-24 15:07 53.78551 10.30468 2993 ft 174 kts 238°
2026-04-24 15:07 53.77778 10.28882 2996 ft 175 kts 234°
2026-04-24 15:07 53.77000 10.27288 2997 ft 175 kts 238°
2026-04-24 15:07 53.76226 10.25700 2997 ft 175 kts 236°
2026-04-24 15:08 53.75452 10.24118 2994 ft 170 kts 238°
2026-04-24 15:08 53.74742 10.22684 2987 ft 152 kts 239°
2026-04-24 15:08 53.74081 10.21337 2992 ft 146 kts 238°
2026-04-24 15:08 53.73437 10.20018 3001 ft 144 kts 237°
2026-04-24 15:09 53.72803 10.18719 3004 ft 143 kts 239°
2026-04-24 15:09 53.72171 10.17422 3003 ft 143 kts 240°
2026-04-24 15:09 53.71529 10.16101 2751 ft 149 kts 238°
2026-04-24 15:09 53.70867 10.14749 2452 ft 149 kts 238°
2026-04-24 15:10 53.70215 10.13419 2213 ft 146 kts 238°
2026-04-24 15:10 53.69586 10.12139 2015 ft 140 kts 237°
2026-04-24 15:10 53.68976 10.10897 1810 ft 135 kts 237°
2026-04-24 15:10 53.68384 10.09692 1607 ft 133 kts 239°
2026-04-24 15:11 53.67791 10.08482 1435 ft 134 kts 238°
2026-04-24 15:11 53.67196 10.07271 1243 ft 134 kts 239°
2026-04-24 15:11 53.66602 10.06064 1059 ft 134 kts 237°
2026-04-24 15:11 53.66017 10.04876 859 ft 132 kts 235°
2026-04-24 15:12 53.65429 10.03681 672 ft 132 kts 236°
2026-04-24 15:12 53.64258 10.01308 310 ft 129 kts 237°
2026-04-24 15:12 53.63694 10.00165 132 ft 126 kts 236°
2026-04-24 15:13 53.63177 9.99086 50 ft 108 kts 230°
2026-04-24 15:13 53.62775 9.98278 50 ft 52 kts 229°
2026-04-24 15:13 53.62584 9.97869 48 ft 26 kts 229°
2026-04-24 15:13 53.62473 9.97789 44 ft 15 kts 171°
2026-04-24 15:14 53.62443 9.97829 49 ft 0 kts 127°
2026-04-24 15:14 53.62442 9.97829 49 ft 0 kts 127°
2026-04-24 15:15 53.62430 9.97895 50 ft 13 kts 99°
2026-04-24 15:15 53.62464 9.98086 50 ft 22 kts 59°
2026-04-24 15:15 53.62576 9.98320 51 ft 28 kts 50°
2026-04-24 15:16 53.62704 9.98582 51 ft 30 kts 50°
2026-04-24 15:16 53.62840 9.98855 50 ft 32 kts 53°
2026-04-24 15:16 53.62970 9.99120 50 ft 27 kts 51°
2026-04-24 15:16 53.63074 9.99344 50 ft 10 kts 54°
2026-04-24 15:17 53.63077 9.99351 50 ft 0 kts 54°
2026-04-24 15:18 53.63111 9.99431 50 ft 22 kts 54°
2026-04-24 15:18 53.63203 9.99631 50 ft 4 kts 51°
2026-04-24 15:18 53.63208 9.99641 50 ft 0 kts 50°
2026-04-24 15:20 53.63208 9.99643 50 ft 2 kts 50°
2026-04-24 15:20 53.63212 9.99762 50 ft 15 kts 135°
2026-04-24 15:20 53.63163 9.99813 49 ft 7 kts 152°
2026-04-24 15:20 53.63119 9.99855 49 ft 7 kts 148°
2026-04-24 15:21 53.63080 9.99894 50 ft 6 kts 155°
2026-04-24 15:21 53.63034 9.99932 51 ft 12 kts 154°
2026-04-24 15:21 53.62973 9.99982 51 ft 9 kts 154°
2026-04-24 15:21 53.62930 10.00051 51 ft 8 kts 119°
2026-04-24 15:22 53.62941 10.00122 49 ft 6 kts 44°
2026-04-24 15:22 53.62977 10.00171 51 ft 8 kts 35°
2026-04-24 15:22 53.63024 10.00218 51 ft 8 kts 27°
2026-04-24 15:23 53.63107 10.00290 51 ft 6 kts 53°
2026-04-24 15:23 53.63113 10.00371 51 ft 0 kts 87°